Weather History for Grand Forks, ND

Change the Weather History Date:

Thursday, December 6, 2012

  Actual Average Record
Temperature  
Mean Temperature 29 °F 15 °F  
Max Temperature 39 °F 23 °F 43 °F (1974)
Min Temperature 18 °F 6 °F -26 °F (1972)
Degree Days  
Heating Degree Days 36 50  
Month to date heating degree days 224 294  
Since 1 July heating degree days 2352 2493  
Cooling Degree Days 0 0  
Month to date cooling degree days 0 0  
Year to date cooling degree days 572 379  
Moisture  
Dew Point 20 °F    
Average Humidity 71    
Maximum Humidity 84    
Minimum Humidity 58    
Precipitation  
Precipitation 0.00 in 0.02 in 0.61 in (1951)
Month to date precipitation 0.09 0.12  
Year to date precipitation 16.86 20.32  
Snow  
Snow 0.00 in 0.40 in 2.60 in (1951)
Month to date snowfall 0.0 2.0  
Since 1 July snowfall 9.7 11.2  
Snow Depth 0.00 in    
Sea Level Pressure  
Sea Level Pressure 29.87 in    
Wind  
Wind Speed 13 mph (WNW)    
Max Wind Speed 29 mph    
Max Gust Speed 36 mph    
Visibility 10 miles    
Events      
T = Trace of Precipitation, MM = Missing Value Source: NWS Daily Summary

Daily Weather History Graph

Daily Weather History Graph

Search for Another Location

Airport:

Trip Planner

Search our weather history database for the weather conditions in past years. The results will help you decide how hot, cold, wet, or windy it might be!

Date:

Astronomy

Dec. 06, 2012 Rise Set
Actual Time 8:03 AM CST 4:36 PM CST
Civil Twilight 7:27 AM CST 5:12 PM CST
Nautical Twilight 6:48 AM CST 5:51 PM CST
Astronomical Twilight 6:11 AM CST 6:28 PM CST
Moon No Moon Rise 12:30 PM CST (12/6)
Length of Visible Light 9h 44m
Length of Day
8h 32m
Waning Gibbous, 49% of the Moon is Illuminated
Dec 6
Waning Gibbous
Dec 13
New
Dec 19
First Quarter
Dec 28
Full
Jan 4
Last Quarter

Hourly Weather History & Observations

Time (CST) Temp. Windchill Dew Point Humidity Pressure Visibility Wind Dir Wind Speed Gust Speed Precip Events Conditions
12:53 AM 30.0 °F 21.1 °F 24.1 °F 79% 29.62 in 10.0 mi South 10.4 mph - N/A   Partly Cloudy
1:53 AM 37.9 °F 28.9 °F 28.9 °F 70% 29.62 in 10.0 mi West 16.1 mph - N/A   Clear
2:53 AM 36.0 °F 26.3 °F 28.0 °F 73% 29.68 in 10.0 mi WNW 16.1 mph - N/A   Mostly Cloudy
3:53 AM 33.1 °F 20.3 °F 26.1 °F 75% 29.70 in 10.0 mi WNW 24.2 mph - N/A   Overcast
4:19 AM 32.0 °F 18.6 °F 24.8 °F 75% 29.68 in 10.0 mi WNW 25.3 mph 29.9 mph N/A   Overcast
4:53 AM 32.0 °F 19.5 °F 24.1 °F 73% 29.74 in 10.0 mi WNW 21.9 mph 31.1 mph N/A   Overcast
5:53 AM 30.0 °F 17.9 °F 21.9 °F 72% 29.77 in 10.0 mi NW 18.4 mph 27.6 mph N/A   Overcast
6:53 AM 28.9 °F 16.5 °F 21.9 °F 75% 29.81 in 10.0 mi WNW 18.4 mph - N/A   Overcast
7:53 AM 27.0 °F 15.6 °F 21.0 °F 78% 29.84 in 10.0 mi NW 13.8 mph - N/A   Overcast
8:53 AM 25.0 °F 11.7 °F 19.0 °F 78% 29.86 in 10.0 mi WNW 17.3 mph - N/A   Overcast
9:53 AM 24.1 °F 10.6 °F 17.1 °F 75% 29.90 in 10.0 mi WNW 17.3 mph - N/A   Overcast
10:53 AM 25.0 °F 12.2 °F 17.1 °F 72% 29.92 in 10.0 mi NW 16.1 mph 20.7 mph N/A   Overcast
11:53 AM 26.1 °F 13.6 °F 16.0 °F 66% 29.92 in 10.0 mi NW 16.1 mph - N/A   Scattered Clouds
12:53 PM 28.9 °F 16.9 °F 16.0 °F 58% 29.92 in 10.0 mi NW 17.3 mph - N/A   Scattered Clouds
1:53 PM 28.9 °F 17.3 °F 17.1 °F 61% 29.92 in 10.0 mi WNW 16.1 mph - N/A   Scattered Clouds
2:53 PM 28.0 °F 16.5 °F 16.0 °F 61% 29.94 in 10.0 mi WNW 15.0 mph - N/A   Mostly Cloudy
3:53 PM 27.0 °F 15.6 °F 18.0 °F 69% 29.95 in 10.0 mi WNW 13.8 mph - N/A   Mostly Cloudy
4:22 PM 26.6 °F 15.7 °F 19.4 °F 74% 29.93 in 10.0 mi WNW 12.7 mph - N/A   Overcast
4:53 PM 27.0 °F 18.7 °F 19.9 °F 75% 29.96 in 10.0 mi NW 8.1 mph - N/A   Overcast
5:53 PM 28.0 °F 22.8 °F 21.0 °F 75% 29.96 in 10.0 mi WNW 4.6 mph - N/A   Overcast
6:53 PM 26.1 °F 21.9 °F 19.9 °F 78% 29.97 in 10.0 mi West 3.5 mph - N/A   Mostly Cloudy
7:05 PM 24.8 °F 19.1 °F 19.4 °F 80% 29.92 in 10.0 mi West 4.6 mph - N/A   Partly Cloudy
7:53 PM 24.1 °F - 19.0 °F 81% 29.98 in 10.0 mi Calm Calm - N/A   Clear
8:53 PM 21.0 °F 13.4 °F 17.1 °F 85% 29.99 in 10.0 mi WNW 5.8 mph - N/A   Clear
9:53 PM 21.9 °F 11.0 °F 18.0 °F 85% 30.00 in 10.0 mi WNW 10.4 mph - N/A   Clear
11:53 PM 18.0 °F 9.8 °F 14.0 °F 84% 30.04 in 10.0 mi NW 5.8 mph - N/A   Clear